SR9WXM Weather Reports


Display with metric or nautical units.
time (UTC)temp
F
wind
direction
speed
MPH
gust
MPH
rain 1hr
in
rain 24hr
in
rain mn
in
humidity
%
barometer
mb
20260510123450 56 84 4.0 9.0 0.00 0.00 0.00 100
20260510123049 56 99 5.0 8.0 0.00 0.00 0.00 100
20260510122649 56 108 5.0 7.0 0.00 0.00 0.00 100
20260510122247 57 107 4.0 6.0 0.00 0.00 0.00 100
20260510121844 58 105 4.0 7.0 0.00 0.00 0.00 100
20260510121444 58 103 4.0 6.0 0.00 0.00 0.00 100
20260510120644 58 144 2.0 5.0 0.00 0.00 0.00 100
20260510120242 57 113 2.0 5.0 0.00 0.00 0.00 100
20260510115842 56 129 4.0 6.0 0.00 0.00 0.00 100
20260510115442 56 142 4.0 8.0 0.00 0.00 0.00 100
20260510115042 56 67 4.0 9.0 0.00 0.00 0.00 100
20260510114642 56 134 4.0 9.0 0.00 0.00 0.00 100
20260510114240 56 64 4.0 8.0 0.00 0.00 0.00 100
20260510113840 56 101 5.0 7.0 0.00 0.00 0.00 100
20260510113439 56 116 4.0 6.0 0.00 0.00 0.00 100
20260510113039 56 118 4.0 8.0 0.00 0.00 0.00 100
20260510112639 56 102 5.0 8.0 0.00 0.00 0.00 100
20260510112237 56 130 3.0 7.0 0.00 0.00 0.00 100
20260510111837 56 71 2.0 6.0 0.00 0.00 0.00 100
20260510111437 56 110 3.0 6.0 0.00 0.00 0.00 100
20260510111037 56 142 3.0 5.0 0.00 0.00 0.00 100
20260510110638 56 84 2.0 5.0 0.00 0.00 0.00 100
20260510110236 55 113 2.0 5.0 0.00 0.00 0.00 100
20260510105836 55 63 3.0 6.0 0.00 0.00 0.00 100
20260510105436 55 92 2.0 6.0 0.00 0.00 0.00 100
20260510105035 54 73 2.0 4.0 0.00 0.00 0.00 100
20260510104628 54 109 4.0 8.0 0.00 0.00 0.00 100
20260510104226 55 154 4.0 9.0 0.00 0.00 0.00 100
20260510103827 55 188 4.0 8.0 0.00 0.00 0.00 100
20260510103426 55 130 4.0 7.0 0.00 0.00 0.00 100
20260510103025 55 112 3.0 7.0 0.00 0.00 0.00 100
20260510102625 55 123 2.0 5.0 0.00 0.00 0.00 100
20260510102224 55 151 3.0 6.0 0.00 0.00 0.00 100
20260510101825 54 237 2.0 4.0 0.00 0.00 0.00 100
20260510101424 54 239 3.0 8.0 0.00 0.00 0.00 100
20260510101023 53 162 1.0 4.0 0.00 0.00 0.00 100
20260510100623 54 202 2.0 4.0 0.00 0.00 0.00 100
20260510100221 53 223 3.0 7.0 0.00 0.00 0.00 100
20260510095821 52 175 2.0 4.0 0.00 0.00 0.00 100
20260510095421 52 202 2.0 4.0 0.00 0.00 0.00 100
20260510095021 52 216 2.0 5.0 0.00 0.00 0.00 100
20260510094621 51 139 2.0 4.0 0.00 0.00 0.00 100
20260510094219 51 180 2.0 5.0 0.00 0.00 0.00 100
20260510093819 50 228 4.0 8.0 0.00 0.00 0.00 100
20260510093419 51 194 2.0 7.0 0.00 0.00 0.00 100
20260510093019 51 173 4.0 8.0 0.00 0.00 0.00 100
20260510092618 51 198 4.0 8.0 0.00 0.00 0.00 100
20260510092216 51 206 3.0 7.0 0.00 0.00 0.00 100
20260510091816 51 206 2.0 3.0 0.00 0.00 0.00 100
20260510091416 50 194 3.0 6.0 0.00 0.00 0.00 100
20260510091015 50 212 4.0 7.0 0.00 0.00 0.00 100
20260510090615 50 172 3.0 6.0 0.00 0.00 0.00 100
20260510090212 49 189 3.0 5.0 0.00 0.00 0.00 100
20260510085812 49 268 1.0 5.0 0.00 0.00 0.00 100
20260510085411 50 249 2.0 7.0 0.00 0.00 0.00 100
20260510085012 49 225 3.0 6.0 0.00 0.00 0.00 100
20260510084611 49 209 4.0 8.0 0.00 0.00 0.00 100
20260510084209 48 186 2.0 4.0 0.00 0.00 0.00 100
20260510083808 48 166 4.0 10.0 0.00 0.00 0.00 100
20260510083408 48 146 2.0 5.0 0.00 0.00 0.00 100
20260510083009 48 187 3.0 7.0 0.00 0.00 0.00 100
20260510082608 48 210 4.0 8.0 0.00 0.00 0.00 100
20260510082206 48 182 4.0 9.0 0.00 0.00 0.00 100
20260510081806 48 133 3.0 6.0 0.00 0.00 0.00 100
20260510081406 48 204 5.0 7.0 0.00 0.00 0.00 100
20260510080554 48 144 3.0 4.0 0.00 0.00 0.00 100
20260510080152 48 167 3.0 9.0 0.00 0.00 0.00 100
20260510075752 47 171 3.0 7.0 0.00 0.00 0.00 100
20260510075352 47 205 2.0 4.0 0.00 0.00 0.00 100
20260510074952 47 251 2.0 4.0 0.00 0.00 0.00 100
20260510074552 48 158 4.0 7.0 0.00 0.00 0.00 100
20260510074150 48 169 2.0 5.0 0.00 0.00 0.00 100
20260510073750 47 126 2.0 4.0 0.00 0.00 0.00 100
20260510073350 47 154 3.0 6.0 0.00 0.00 0.00 100
20260510072953 46 169 4.0 10.0 0.00 0.00 0.00 100
20260510072549 46 153 3.0 8.0 0.00 0.00 0.00 100
20260510072147 45 125 6.0 12.0 0.00 0.00 0.00 100
20260510071748 45 190 4.0 7.0 0.00 0.00 0.00 100
20260510071349 45 160 7.0 13.0 0.00 0.00 0.00 100
20260510070948 45 184 5.0 12.0 0.00 0.00 0.00 100
20260510070548 45 192 4.0 8.0 0.00 0.00 0.00 100
20260510070146 45 177 6.0 10.0 0.00 0.00 0.00 100
20260510065746 45 158 4.0 10.0 0.00 0.00 0.00 100
20260510065346 45 135 5.0 11.0 0.00 0.00 0.00 100
20260510064946 44 153 5.0 10.0 0.00 0.00 0.00 100
20260510064547 43 156 8.0 12.0 0.00 0.00 0.00 100
20260510064144 43 165 7.0 11.0 0.00 0.00 0.00 100
20260510063744 43 172 6.0 13.0 0.00 0.00 0.00 100
20260510063344 43 169 8.0 14.0 0.00 0.00 0.00 100
20260510062944 43 174 6.0 12.0 0.00 0.00 0.00 100
20260510062544 43 157 7.0 12.0 0.00 0.00 0.00 100
20260510062142 43 155 8.0 16.0 0.00 0.00 0.00 100
20260510061742 43 163 7.0 15.0 0.00 0.00 0.00 100
20260510061342 44 161 5.0 12.0 0.00 0.00 0.00 100
20260510060942 44 152 5.0 9.0 0.00 0.00 0.00 100
20260510060542 44 136 5.0 8.0 0.00 0.00 0.00 100
20260510060140 44 124 4.0 11.0 0.00 0.00 0.00 100
20260510055743 44 121 6.0 12.0 0.00 0.00 0.00 100
20260510055341 44 119 6.0 10.0 0.00 0.00 0.00 100
20260510054941 44 124 6.0 11.0 0.00 0.00 0.00 100
20260510054541 44 127 4.0 6.0 0.00 0.00 0.00 100
20260510054139 44 128 4.0 8.0 0.00 0.00 0.00 100
20260510053739 43 83 3.0 6.0 0.00 0.00 0.00 100
20260510053332 43 121 6.0 9.0 0.00 0.00 0.00 100
20260510052930 43 107 3.0 10.0 0.00 0.00 0.00 100
20260510052530 43 111 6.0 9.0 0.00 0.00 0.00 100
20260510052129 43 120 6.0 10.0 0.00 0.00 0.00 100
20260510051729 42 134 7.0 11.0 0.00 0.00 0.00 100
20260510051328 42 131 6.0 10.0 0.00 0.00 0.00 100
20260510050928 42 147 4.0 6.0 0.00 0.00 0.00 100
20260510050528 42 122 6.0 13.0 0.00 0.00 0.00 100
20260510050126 42 112 6.0 9.0 0.00 0.00 0.00 100
20260510045726 42 119 6.0 9.0 0.00 0.00 0.00 100
20260510045326 42 93 4.0 7.0 0.00 0.00 0.00 100
20260510044926 41 124 4.0 8.0 0.00 0.00 0.00 100
20260510044526 41 125 6.0 11.0 0.00 0.00 0.00 100
20260510044124 40 139 5.0 10.0 0.00 0.00 0.00 100
20260510043724 40 148 4.0 7.0 0.00 0.00 0.00 100
20260510043324 40 161 5.0 9.0 0.00 0.00 0.00 100
20260510042924 41 149 4.0 8.0 0.00 0.00 0.00 100
20260510042524 41 145 5.0 9.0 0.00 0.00 0.00 100
20260510042122 40 135 4.0 10.0 0.00 0.00 0.00 100
20260510041722 40 132 7.0 11.0 0.00 0.00 0.00 100
20260510041322 40 129 5.0 9.0 0.00 0.00 0.00 100
20260510040922 40 106 6.0 14.0 0.00 0.00 0.00 100
20260510040522 40 127 5.0 10.0 0.00 0.00 0.00 100
20260510040124 40 141 5.0 8.0 0.00 0.00 0.00 100
20260510035717 39 150 5.0 10.0 0.00 0.00 0.00 100
20260510035317 39 145 6.0 9.0 0.00 0.00 0.00 100
20260510034917 39 141 6.0 10.0 0.00 0.00 0.00 100
20260510034517 39 141 5.0 9.0 0.00 0.00 0.00 100
20260510034115 39 129 4.0 8.0 0.00 0.00 0.00 100
20260510033715 39 142 4.0 7.0 0.00 0.00 0.00 100
20260510033315 39 140 4.0 7.0 0.00 0.00 0.00 100
20260510032915 39 128 4.0 8.0 0.00 0.00 0.00 100
20260510032515 39 136 4.0 9.0 0.00 0.00 0.00 100
20260510032113 39 131 5.0 8.0 0.00 0.00 0.00 100
20260510031713 39 142 5.0 10.0 0.00 0.00 0.00 100
20260510031313 39 149 4.0 9.0 0.00 0.00 0.00 100
20260510030913 39 143 4.0 9.0 0.00 0.00 0.00 100
20260510030513 39 144 5.0 8.0 0.00 0.00 0.00 100
20260510025702 38 141 4.0 7.0 0.00 0.00 0.00 100
20260510025301 38 129 4.0 9.0 0.00 0.00 0.00 100
20260510024901 38 119 4.0 7.0 0.00 0.00 0.00 100
20260510024501 38 113 4.0 7.0 0.00 0.00 0.00 100
20260510024059 38 109 4.0 8.0 0.00 0.00 0.00 100
20260510023659 38 119 4.0 7.0 0.00 0.00 0.00 100
20260510023258 38 112 4.0 8.0 0.00 0.00 0.00 100
20260510022858 38 112 4.0 7.0 0.00 0.00 0.00 100
20260510022459 38 117 5.0 7.0 0.00 0.00 0.00 100
20260510022057 38 114 5.0 7.0 0.00 0.00 0.00 100
20260510021657 38 110 4.0 6.0 0.00 0.00 0.00 100
20260510021256 38 104 4.0 7.0 0.00 0.00 0.00 100
20260510020856 38 119 5.0 10.0 0.00 0.00 0.00 100
20260510020456 39 122 4.0 6.0 0.00 0.00 0.00 100
20260510020054 39 123 4.0 6.0 0.00 0.00 0.00 100
20260510015654 39 107 6.0 8.0 0.00 0.00 0.00 100
20260510015254 39 116 4.0 7.0 0.00 0.00 0.00 100
20260510014854 39 138 4.0 9.0 0.00 0.00 0.00 100
20260510014454 39 132 4.0 8.0 0.00 0.00 0.00 100
20260510014052 39 115 4.0 9.0 0.00 0.00 0.00 100
20260510013652 39 121 4.0 7.0 0.00 0.00 0.00 100
20260510013252 39 131 2.0 5.0 0.00 0.00 0.00 100
20260510012852 39 150 2.0 4.0 0.00 0.00 0.00 100
20260510012452 39 145 3.0 7.0 0.00 0.00 0.00 100
20260510012050 39 136 5.0 11.0 0.00 0.00 0.00 100
20260510011650 39 147 4.0 7.0 0.00 0.00 0.00 100
20260510011250 39 146 3.0 4.0 0.00 0.00 0.00 100
20260510010850 39 136 4.0 6.0 0.00 0.00 0.00 100
20260510010452 39 144 3.0 6.0 0.00 0.00 0.00 100
20260510010048 39 139 3.0 5.0 0.00 0.00 0.00 100
20260510005648 39 122 2.0 4.0 0.00 0.00 0.00 100
20260510005248 39 126 3.0 7.0 0.00 0.00 0.00 100
20260510004848 39 120 5.0 7.0 0.00 0.00 0.00 100
20260510004448 39 119 4.0 7.0 0.00 0.00 0.00 100
20260510004046 39 120 4.0 7.0 0.00 0.00 0.00 100
20260510003648 39 129 3.0 7.0 0.00 0.00 0.00 100
20260510003246 39 135 4.0 7.0 0.00 0.00 0.00 100
20260510002847 39 124 4.0 7.0 0.00 0.00 0.00 100
20260510002439 38 126 3.0 7.0 0.00 0.00 0.00 100
20260510002037 38 131 3.0 7.0 0.00 0.00 0.00 100
20260510001637 38 125 3.0 8.0 0.00 0.00 0.00 100
20260510001237 38 116 3.0 5.0 0.00 0.00 0.00 100
20260510000837 38 120 4.0 10.0 0.00 0.00 0.00 100
20260510000438 38 120 2.0 5.0 0.00 0.00 0.00 100
20260510000036 38 120 3.0 6.0 0.00 0.00 0.00 100
20260509235636 38 115 4.0 7.0 0.00 0.00 0.00 100
20260509235236 38 111 4.0 8.0 0.00 0.00 0.00 100
20260509234834 38 110 5.0 8.0 0.00 0.00 0.00 100
20260509234433 38 93 3.0 5.0 0.00 0.00 0.00 100
20260509234031 38 91 3.0 5.0 0.00 0.00 0.00 100
20260509233631 38 94 3.0 6.0 0.00 0.00 0.00 100
20260509233231 38 99 4.0 7.0 0.00 0.00 0.00 100
20260509232831 38 96 3.0 4.0 0.00 0.00 0.00 100
20260509232432 38 97 3.0 6.0 0.00 0.00 0.00 100
20260509232030 38 90 2.0 4.0 0.00 0.00 0.00 100
20260509231630 38 102 3.0 5.0 0.00 0.00 0.00 100
20260509231230 38 95 3.0 6.0 0.00 0.00 0.00 100
20260509230830 38 93 4.0 6.0 0.00 0.00 0.00 100
20260509230430 38 105 4.0 6.0 0.00 0.00 0.00 100
20260509230028 38 102 2.0 4.0 0.00 0.00 0.00 100
20260509225628 38 102 3.0 6.0 0.00 0.00 0.00 100
20260509225228 38 109 2.0 4.0 0.00 0.00 0.00 100
20260509224828 38 99 3.0 6.0 0.00 0.00 0.00 100
20260509224428 38 84 2.0 5.0 0.00 0.00 0.00 100
20260509224026 38 102 2.0 6.0 0.00 0.00 0.00 100
20260509223626 38 97 2.0 4.0 0.00 0.00 0.00 100
20260509223226 38 91 3.0 6.0 0.00 0.00 0.00 100
20260509222826 38 99 3.0 5.0 0.00 0.00 0.00 100
20260509222427 38 107 4.0 5.0 0.00 0.00 0.00 100
20260509222025 38 82 2.0 4.0 0.00 0.00 0.00 100
20260509221625 38 92 2.0 2.0 0.00 0.00 0.00 100
20260509221225 38 95 2.0 3.0 0.00 0.00 0.00 100
20260509220825 38 102 2.0 4.0 0.00 0.00 0.00 100
20260509220425 38 91 2.0 3.0 0.00 0.00 0.00 100
20260509220023 38 91 1.0 2.0 0.00 0.00 0.00 100
20260509215623 38 93 1.0 1.0 0.00 0.00 0.00 100
20260509215223 38 91 1.0 2.0 0.00 0.00 0.00 100
20260509214814 38 91 2.0 3.0 0.00 0.00 0.00 100
20260509214414 38 90 2.0 3.0 0.00 0.00 0.00 100
20260509214012 38 95 3.0 5.0 0.00 0.00 0.00 100
20260509213612 38 94 4.0 7.0 0.00 0.00 0.00 100
20260509213212 38 101 3.0 5.0 0.00 0.00 0.00 100
20260509212812 38 97 3.0 6.0 0.00 0.00 0.00 100
20260509212412 38 90 3.0 7.0 0.00 0.00 0.00 100
20260509212013 38 95 3.0 5.0 0.00 0.00 0.00 100
20260509211610 38 70 3.0 4.0 0.00 0.00 0.00 100
20260509211210 38 73 3.0 5.0 0.00 0.00 0.00 100
20260509210812 38 75 3.0 5.0 0.00 0.00 0.00 100
20260509210410 38 76 2.0 4.0 0.00 0.00 0.00 100
20260509210008 38 71 2.0 4.0 0.00 0.00 0.00 100
20260509205606 38 80 3.0 4.0 0.00 0.00 0.00 100
20260509205206 38 70 2.0 4.0 0.00 0.00 0.00 100
20260509204806 38 62 3.0 4.0 0.00 0.00 0.00 100
20260509204407 38 76 4.0 5.0 0.00 0.00 0.00 100
20260509204005 38 75 3.0 6.0 0.00 0.00 0.00 100
20260509203605 38 72 4.0 6.0 0.00 0.00 0.00 100
20260509203204 38 69 4.0 6.0 0.00 0.00 0.00 100
20260509202804 38 63 2.0 6.0 0.00 0.00 0.00 100
20260509202404 38 68 3.0 5.0 0.00 0.00 0.00 100
20260509202002 38 67 2.0 6.0 0.00 0.00 0.00 100
20260509201602 38 75 2.0 4.0 0.00 0.00 0.00 100
20260509201202 39 75 2.0 5.0 0.00 0.00 0.00 100
20260509200802 39 78 3.0 6.0 0.00 0.00 0.00 100
20260509200402 39 73 4.0 7.0 0.00 0.00 0.00 100
20260509200000 39 70 4.0 7.0 0.00 0.00 0.00 100
20260509195600 39 82 4.0 7.0 0.00 0.00 0.00 100
20260509195159 39 72 3.0 4.0 0.00 0.00 0.00 100
20260509194759 39 79 4.0 7.0 0.00 0.00 0.00 100
20260509194359 39 79 4.0 6.0 0.00 0.00 0.00 100
20260509193957 39 79 3.0 7.0 0.00 0.00 0.00 100
20260509193555 39 77 3.0 5.0 0.00 0.00 0.00 100
20260509193155 39 75 3.0 5.0 0.00 0.00 0.00 100
20260509192755 39 73 2.0 4.0 0.00 0.00 0.00 100
20260509192355 39 67 2.0 4.0 0.00 0.00 0.00 100
20260509191954 40 72 2.0 4.0 0.00 0.00 0.00 100
20260509191554 40 73 4.0 8.0 0.00 0.00 0.00 100
20260509191146 40 54 2.0 5.0 0.00 0.00 0.00 100
20260509190746 40 65 1.0 1.0 0.00 0.00 0.00 100
20260509190346 40 57 3.0 6.0 0.00 0.00 0.00 100
20260509185944 40 66 2.0 4.0 0.00 0.00 0.00 100
20260509185544 40 54 2.0 4.0 0.00 0.00 0.00 100
20260509185144 40 57 3.0 6.0 0.00 0.00 0.00 100
20260509184744 40 81 2.0 4.0 0.00 0.00 0.00 100
20260509184344 40 90 2.0 4.0 0.00 0.00 0.00 100
20260509183942 40 58 2.0 4.0 0.00 0.00 0.00 100
20260509183541 40 67 2.0 4.0 0.00 0.00 0.00 100
20260509183142 40 59 2.0 4.0 0.00 0.00 0.00 100
20260509182741 40 57 2.0 6.0 0.00 0.00 0.00 100
20260509182342 40 58 2.0 3.0 0.00 0.00 0.00 100
20260509181943 41 57 2.0 4.0 0.00 0.00 0.00 100
20260509181542 41 72 2.0 4.0 0.00 0.00 0.00 100
20260509181140 41 65 2.0 5.0 0.00 0.00 0.00 100
20260509180742 41 67 2.0 4.0 0.00 0.00 0.00 100
20260509180341 41 79 2.0 3.0 0.00 0.00 0.00 100
20260509175937 41 42 2.0 3.0 0.00 0.00 0.00 100
20260509175536 41 97 2.0 3.0 0.00 0.00 0.00 100
20260509175137 41 41 2.0 4.0 0.00 0.00 0.00 100
20260509174738 41 48 3.0 8.0 0.00 0.00 0.00 100
20260509174338 41 60 4.0 8.0 0.00 0.00 0.00 100
20260509173935 41 62 3.0 6.0 0.00 0.00 0.00 100
20260509173535 42 30 2.0 3.0 0.00 0.00 0.00 100
20260509173134 42 45 3.0 5.0 0.00 0.00 0.00 100
20260509172734 42 49 3.0 6.0 0.00 0.00 0.00 100
20260509172334 42 59 2.0 4.0 0.00 0.00 0.00 100
20260509171932 42 63 2.0 4.0 0.00 0.00 0.00 100
20260509171532 42 48 1.0 2.0 0.00 0.00 0.00 100
20260509171132 42 49 1.0 1.0 0.00 0.00 0.00 100
20260509170732 42 45 0.0 1.0 0.00 0.00 0.00 100
20260509170334 42 39 1.0 2.0 0.00 0.00 0.00 100
20260509170332 42 39 1.0 2.0 0.00 0.00 0.00 100
20260509165930 42 32 2.0 2.0 0.00 0.00 0.00 100
20260509165530 42 39 2.0 3.0 0.00 0.00 0.00 100
20260509165130 42 52 4.0 6.0 0.00 0.00 0.00 100
20260509164730 42 80 2.0 5.0 0.00 0.00 0.00 100
20260509164329 42 49 2.0 3.0 0.00 0.00 0.00 100
20260509163918 43 61 2.0 4.0 0.00 0.00 0.00 100
20260509163518 43 50 3.0 7.0 0.00 0.00 0.00 100
20260509163119 43 50 3.0 6.0 0.00 0.00 0.00 100
20260509162719 43 59 4.0 8.0 0.00 0.00 0.00 100
20260509162319 43 47 4.0 6.0 0.00 0.00 0.00 100
20260509161917 43 66 4.0 7.0 0.00 0.00 0.00 100
20260509161517 43 49 3.0 5.0 0.00 0.00 0.00 100
20260509161117 43 50 3.0 7.0 0.00 0.00 0.00 100
20260509160717 43 42 3.0 4.0 0.00 0.00 0.00 100
20260509160317 43 86 3.0 6.0 0.00 0.00 0.00 100
20260509155915 43 57 3.0 7.0 0.00 0.00 0.00 100
20260509155515 43 55 6.0 8.0 0.00 0.00 0.00 100
20260509155115 43 37 4.0 18.0 0.00 0.00 0.00 100
20260509154715 43 65 4.0 7.0 0.00 0.00 0.00 100
20260509154315 43 19 5.0 8.0 0.00 0.00 0.00 100
20260509153913 43 48 4.0 7.0 0.00 0.00 0.00 100
20260509153514 43 58 4.0 9.0 0.00 0.00 0.00 100
20260509153114 44 82 5.0 10.0 0.00 0.00 0.00 100
20260509152711 44 25 2.0 5.0 0.00 0.00 0.00 100
20260509152311 44 52 3.0 5.0 0.00 0.00 0.00 100
20260509151910 43 49 3.0 7.0 0.00 0.00 0.00 100
20260509151509 43 45 3.0 5.0 0.00 0.00 0.00 100
20260509151109 44 51 4.0 7.0 0.00 0.00 0.00 100
20260509150709 44 70 3.0 11.0 0.00 0.00 0.00 100
20260509150309 44 36 2.0 4.0 0.00 0.00 0.00 100
20260509145907 44 45 3.0 4.0 0.00 0.00 0.00 100
20260509145507 44 55 3.0 8.0 0.00 0.00 0.00 100
20260509145107 44 32 2.0 3.0 0.00 0.00 0.00 100
20260509144707 44 56 2.0 6.0 0.00 0.00 0.00 100
20260509144307 44 81 2.0 4.0 0.00 0.00 0.00 100
20260509143905 44 46 3.0 7.0 0.00 0.00 0.00 100
20260509143505 44 57 4.0 6.0 0.00 0.00 0.00 100
20260509143105 44 40 2.0 5.0 0.00 0.00 0.00 100
20260509142705 43 53 5.0 7.0 0.00 0.00 0.00 100
20260509142307 44 49 6.0 10.0 0.00 0.00 0.00 100
20260509141903 44 43 5.0 7.0 0.00 0.00 0.00 100
20260509141503 44 40 3.0 6.0 0.00 0.00 0.00 100
20260509141103 44 43 2.0 3.0 0.00 0.00 0.00 100
20260509140704 44 56 3.0 4.0 0.00 0.00 0.00 100
20260509140256 44 41 3.0 6.0 0.00 0.00 0.00 100
20260509135853 44 61 2.0 4.0 0.00 0.00 0.00 100
20260509135453 44 36 3.0 5.0 0.00 0.00 0.00 100
20260509135053 45 35 2.0 3.0 0.00 0.00 0.00 100
20260509134653 44 50 2.0 4.0 0.00 0.00 0.00 100
20260509133851 44 77 3.0 6.0 0.00 0.00 0.00 100
20260509133451 44 46 4.0 6.0 0.00 0.00 0.00 100
20260509132653 44 41 4.0 7.0 0.00 0.00 0.00 100
20260509132253 44 63 4.0 6.0 0.00 0.00 0.00 100
20260509131850 44 50 4.0 7.0 0.00 0.00 0.00 100
20260509131450 44 322 3.0 5.0 0.00 0.00 0.00 100
20260509131050 44 29 4.0 6.0 0.00 0.00 0.00 100
20260509130650 44 26 2.0 5.0 0.00 0.00 0.00 100
20260509130250 44 30 1.0 4.0 0.00 0.00 0.00 100
20260509125848 44 46 2.0 4.0 0.00 0.00 0.00 100
20260509125448 44 123 1.0 3.0 0.00 0.00 0.00 100
20260509125048 44 84 0.0 1.0 0.00 0.00 0.00 100
20260509124648 44 87 1.0 3.0 0.00 0.00 0.00 100
20260509124248 44 68 2.0 4.0 0.00 0.00 0.00 100
20260509123846 44 86 3.0 5.0 0.00 0.00 0.00 100